Location: Nelson
(41.2830°S, 173.2830°E)
Time: 12:57:21
(UTC+13:00)

Radarsat Rocket - Pass Details

Date: 03 October 2021
Orbit: 933 x 1492 km, 100.6° (Epoch: 27 October)

Event Time Altitude Azimuth Distance (km) Brightness Sun altitude
Rises 20:41:12 0° 168° (SSE) 4,182 7.4 -13.0°
Reaches altitude 10° 20:44:02 10° 172° (S) 3,130 6.8 -13.5°
Maximum altitude 20:50:51 55° 247° (WSW) 1,283 5.0 -14.8°
Drops below altitude 10° 20:56:53 10° 322° (NW) 2,770 6.6 -15.8°
Sets 20:59:16 0° 327° (NNW) 3,667 7.2 -16.2°
